Time,TemperatureF,DewpointF,PressureIn,WindDirection,WindDirectionDegrees,WindSpeedMPH,WindSpeedGustMPH,Humidity,HourlyPrecipIn,Conditions,Clouds,dailyrainin,SoftwareType,DateUTC
2013-04-28 00:03:00,50.0,-99.9,30.27,WSW,248,0.0,1.0,49,0.00,,,0.00,,2013-04-28 04:03:00,
2013-04-28 00:13:00,50.0,32.0,30.27,WSW,248,0.0,1.0,49,0.00,,,0.00,,2013-04-28 04:13:00,
2013-04-28 00:23:00,50.0,32.0,30.27,WSW,248,0.0,0.0,50,0.00,,,0.00,,2013-04-28 04:23:00,
2013-04-28 00:32:00,49.0,32.0,30.27,NNW,331,0.0,0.0,52,0.00,,,0.00,,2013-04-28 04:32:00,
2013-04-28 00:43:00,49.0,32.0,30.27,NNW,331,0.0,0.0,52,0.00,,,0.00,,2013-04-28 04:43:00,
2013-04-28 00:53:00,49.0,32.0,30.27,NNW,331,0.0,0.0,52,0.00,,,0.00,,2013-04-28 04:53:00,
2013-04-28 01:02:00,49.0,32.0,30.27,NNW,331,0.0,0.0,52,0.00,,,0.00,,2013-04-28 05:02:00,
2013-04-28 01:12:00,49.0,32.0,30.27,NNW,331,0.0,0.0,52,0.00,,,0.00,,2013-04-28 05:12:00,
2013-04-28 01:22:00,49.0,33.0,30.26,SSW,209,0.0,2.0,53,0.00,,,0.00,,2013-04-28 05:22:00,
2013-04-28 01:32:00,49.0,33.0,30.26,SSW,209,0.0,0.0,53,0.00,,,0.00,,2013-04-28 05:32:00,
2013-04-28 01:42:00,49.0,33.0,30.26,SSW,209,0.0,0.0,53,0.00,,,0.00,,2013-04-28 05:42:00,
2013-04-28 01:52:00,49.0,34.0,30.26,SSW,209,0.0,0.0,55,0.00,,,0.00,,2013-04-28 05:52:00,
2013-04-28 02:01:00,48.0,33.0,30.26,SSW,209,0.0,0.0,56,0.00,,,0.00,,2013-04-28 06:01:00,
2013-04-28 02:12:00,48.0,33.0,30.26,SSW,209,0.0,0.0,56,0.00,,,0.00,,2013-04-28 06:12:00,
2013-04-28 02:21:00,48.0,33.0,30.26,SSW,209,0.0,0.0,56,0.00,,,0.00,,2013-04-28 06:21:00,
2013-04-28 02:32:00,48.0,34.0,30.25,SSW,209,0.0,0.0,58,0.00,,,0.00,,2013-04-28 06:32:00,
2013-04-28 02:42:00,48.0,34.0,30.25,SSW,209,0.0,0.0,58,0.00,,,0.00,,2013-04-28 06:42:00,
2013-04-28 02:51:00,47.0,33.0,30.24,SSW,209,0.0,0.0,59,0.00,,,0.00,,2013-04-28 06:51:00,
2013-04-28 03:01:00,47.0,34.0,30.24,SSW,209,0.0,0.0,60,0.00,,,0.00,,2013-04-28 07:01:00,
2013-04-28 03:11:00,47.0,34.0,30.24,SSW,209,0.0,0.0,60,0.00,,,0.00,,2013-04-28 07:11:00,
2013-04-28 03:21:00,46.0,33.0,30.23,SSW,209,0.0,0.0,60,0.00,,,0.00,,2013-04-28 07:21:00,
2013-04-28 03:32:00,46.0,34.0,30.23,SSW,209,0.0,0.0,63,0.00,,,0.00,,2013-04-28 07:32:00,
2013-04-28 03:42:00,46.0,34.0,30.23,SSW,209,0.0,0.0,63,0.00,,,0.00,,2013-04-28 07:42:00,
2013-04-28 03:52:00,45.0,33.0,30.23,SSW,209,0.0,0.0,63,0.00,,,0.00,,2013-04-28 07:52:00,
2013-04-28 04:02:00,45.0,34.0,30.23,SSW,209,0.0,0.0,64,0.00,,,0.00,,2013-04-28 08:02:00,
2013-04-28 04:11:00,45.0,34.0,30.23,SSW,209,0.0,0.0,64,0.00,,,0.00,,2013-04-28 08:11:00,
2013-04-28 04:21:00,44.0,33.0,30.23,SSW,209,0.0,0.0,64,0.00,,,0.00,,2013-04-28 08:21:00,
2013-04-28 04:32:00,44.0,33.0,30.23,SSW,209,0.0,0.0,66,0.00,,,0.00,,2013-04-28 08:32:00,
2013-04-28 04:42:00,44.0,33.0,30.23,SSW,209,0.0,0.0,66,0.00,,,0.00,,2013-04-28 08:42:00,
2013-04-28 04:52:00,44.0,34.0,30.23,SSW,209,0.0,0.0,67,0.00,,,0.00,,2013-04-28 08:52:00,
2013-04-28 05:01:00,43.0,33.0,30.24,SSW,209,0.0,0.0,67,0.00,,,0.00,,2013-04-28 09:01:00,
2013-04-28 05:12:00,43.0,33.0,30.24,SSW,209,0.0,0.0,67,0.00,,,0.00,,2013-04-28 09:12:00,
2013-04-28 05:21:00,43.0,33.0,30.23,SSW,209,0.0,0.0,68,0.00,,,0.00,,2013-04-28 09:21:00,
2013-04-28 05:33:00,43.0,34.0,30.23,SSW,209,0.0,0.0,70,0.00,,,0.00,,2013-04-28 09:33:00,
2013-04-28 05:42:00,43.0,34.0,30.23,SSW,209,0.0,0.0,70,0.00,,,0.00,,2013-04-28 09:42:00,
2013-04-28 05:53:00,43.0,34.0,30.23,SSW,209,0.0,0.0,71,0.00,,,0.00,,2013-04-28 09:53:00,
2013-04-28 06:03:00,42.0,34.0,30.23,SSW,209,0.0,0.0,74,0.00,,,0.00,,2013-04-28 10:03:00,
2013-04-28 06:12:00,42.0,34.0,30.23,SSW,209,0.0,0.0,74,0.00,,,0.00,,2013-04-28 10:12:00,
2013-04-28 06:22:00,42.0,34.0,30.23,SSW,209,0.0,0.0,74,0.00,,,0.00,,2013-04-28 10:22:00,
2013-04-28 06:32:00,41.0,33.0,30.24,SSW,209,0.0,0.0,74,0.00,,,0.00,,2013-04-28 10:32:00,
2013-04-28 06:42:00,41.0,33.0,30.24,SSW,209,0.0,0.0,74,0.00,,,0.00,,2013-04-28 10:42:00,
2013-04-28 06:52:00,41.0,34.0,30.24,SSW,209,0.0,0.0,75,0.00,,,0.00,,2013-04-28 10:52:00,
2013-04-28 07:02:00,42.0,36.0,30.25,SSW,209,0.0,0.0,78,0.00,,,0.00,,2013-04-28 11:02:00,
2013-04-28 07:11:00,42.0,36.0,30.25,SSW,209,0.0,0.0,78,0.00,,,0.00,,2013-04-28 11:11:00,
2013-04-28 07:22:00,42.0,36.0,30.26,SSW,209,0.0,0.0,78,0.00,,,0.00,,2013-04-28 11:22:00,
2013-04-28 07:32:00,44.0,38.0,30.25,SSW,208,0.0,1.0,78,0.00,,,0.00,,2013-04-28 11:32:00,
2013-04-28 07:42:00,44.0,38.0,30.25,SSW,208,0.0,1.0,78,0.00,,,0.00,,2013-04-28 11:42:00,
2013-04-28 07:52:00,46.0,39.0,30.25,ESE,111,1.0,2.0,75,0.00,,,0.00,,2013-04-28 11:52:00,
2013-04-28 08:02:00,48.0,39.0,30.26,East,98,1.0,2.0,72,0.00,,,0.00,,2013-04-28 12:02:00,
2013-04-28 08:12:00,48.0,39.0,30.26,East,98,1.0,2.0,72,0.00,,,0.00,,2013-04-28 12:12:00,
2013-04-28 08:21:00,48.0,39.0,30.26,East,98,1.0,3.0,71,0.00,,,0.00,,2013-04-28 12:21:00,
2013-04-28 08:32:00,51.0,41.0,30.26,East,87,1.0,3.0,69,0.00,,,0.00,,2013-04-28 12:32:00,
2013-04-28 08:42:00,51.0,41.0,30.26,East,87,1.0,3.0,69,0.00,,,0.00,,2013-04-28 12:42:00,
2013-04-28 08:52:00,52.0,41.0,30.27,East,93,0.0,3.0,66,0.00,,,0.00,,2013-04-28 12:52:00,
2013-04-28 09:02:00,54.0,40.0,30.27,SW,214,3.0,4.0,58,0.00,,,0.00,,2013-04-28 13:02:00,
2013-04-28 09:11:00,54.0,40.0,30.27,SW,214,3.0,4.0,58,0.00,,,0.00,,2013-04-28 13:11:00,
2013-04-28 09:21:00,54.0,39.0,30.27,ESE,123,2.0,4.0,56,0.00,,,0.00,,2013-04-28 13:21:00,
2013-04-28 09:32:00,55.0,39.0,30.27,SE,124,0.0,4.0,54,0.00,,,0.00,,2013-04-28 13:32:00,
2013-04-28 09:42:00,55.0,39.0,30.27,SE,124,0.0,4.0,54,0.00,,,0.00,,2013-04-28 13:42:00,
2013-04-28 09:52:00,56.0,38.0,30.26,ESE,122,2.0,5.0,51,0.00,,,0.00,,2013-04-28 13:52:00,
2013-04-28 10:02:00,58.0,39.0,30.26,South,175,0.0,5.0,50,0.00,,,0.00,,2013-04-28 14:02:00,
2013-04-28 10:11:00,58.0,39.0,30.26,South,175,0.0,5.0,50,0.00,,,0.00,,2013-04-28 14:11:00,
2013-04-28 10:22:00,59.0,39.0,30.26,SE,131,0.0,4.0,47,0.00,,,0.00,,2013-04-28 14:22:00,
2013-04-28 10:32:00,61.0,40.0,30.26,SSW,213,2.0,7.0,45,0.00,,,0.00,,2013-04-28 14:32:00,
2013-04-28 10:42:00,61.0,40.0,30.26,SSW,213,2.0,7.0,45,0.00,,,0.00,,2013-04-28 14:42:00,
2013-04-28 10:52:00,61.0,41.0,30.26,SW,231,2.0,5.0,47,0.00,,,0.00,,2013-04-28 14:52:00,
2013-04-28 11:02:00,62.0,39.0,30.26,SW,215,2.0,9.0,42,0.00,,,0.00,,2013-04-28 15:02:00,
2013-04-28 11:12:00,62.0,39.0,30.26,SW,215,2.0,9.0,42,0.00,,,0.00,,2013-04-28 15:12:00,
2013-04-28 11:21:00,63.0,40.0,30.25,SW,217,3.0,7.0,43,0.00,,,0.00,,2013-04-28 15:21:00,
2013-04-28 11:32:00,64.0,39.0,30.25,WNW,285,2.0,7.0,40,0.00,,,0.00,,2013-04-28 15:32:00,
2013-04-28 11:42:00,64.0,39.0,30.25,WNW,285,2.0,7.0,40,0.00,,,0.00,,2013-04-28 15:42:00,
2013-04-28 11:53:00,64.0,41.0,30.24,East,97,4.0,7.0,43,0.00,,,0.00,,2013-04-28 15:53:00,
2013-04-28 12:03:00,65.0,43.0,30.24,SE,146,1.0,7.0,44,0.00,,,0.00,,2013-04-28 16:03:00,
2013-04-28 12:13:00,65.0,43.0,30.24,SE,146,1.0,7.0,44,0.00,,,0.00,,2013-04-28 16:13:00,
2013-04-28 12:23:00,66.0,42.0,30.24,WSW,241,3.0,7.0,42,0.00,,,0.00,,2013-04-28 16:23:00,
2013-04-28 12:33:00,66.0,40.0,30.24,East,90,4.0,7.0,39,0.00,,,0.00,,2013-04-28 16:33:00,
2013-04-28 12:42:00,66.0,40.0,30.24,East,90,4.0,7.0,39,0.00,,,0.00,,2013-04-28 16:42:00,
2013-04-28 12:52:00,66.0,40.0,30.24,East,88,4.0,7.0,39,0.00,,,0.00,,2013-04-28 16:52:00,
2013-04-28 13:02:00,67.0,41.0,30.23,SW,229,2.0,7.0,38,0.00,,,0.00,,2013-04-28 17:02:00,
2013-04-28 13:12:00,67.0,41.0,30.23,SW,229,2.0,7.0,38,0.00,,,0.00,,2013-04-28 17:12:00,
2013-04-28 13:22:00,67.0,42.0,30.23,SSW,194,0.0,8.0,40,0.00,,,0.00,,2013-04-28 17:22:00,
2013-04-28 13:32:00,68.0,39.0,30.22,SW,226,2.0,9.0,35,0.00,,,0.00,,2013-04-28 17:32:00,
2013-04-28 13:42:00,68.0,39.0,30.22,SW,226,2.0,9.0,35,0.00,,,0.00,,2013-04-28 17:42:00,
2013-04-28 13:52:00,68.0,41.0,30.22,SSW,198,4.0,10.0,37,0.00,,,0.00,,2013-04-28 17:52:00,
2013-04-28 14:02:00,67.0,40.0,30.21,SSE,157,1.0,7.0,37,0.00,,,0.00,,2013-04-28 18:02:00,
2013-04-28 14:12:00,67.0,40.0,30.21,SSE,157,1.0,7.0,37,0.00,,,0.00,,2013-04-28 18:12:00,
2013-04-28 14:22:00,67.0,41.0,30.21,ESE,102,1.0,7.0,38,0.00,,,0.00,,2013-04-28 18:22:00,
2013-04-28 14:32:00,67.0,39.0,30.21,SE,124,4.0,8.0,36,0.00,,,0.00,,2013-04-28 18:32:00,
2013-04-28 14:42:00,67.0,39.0,30.21,SE,124,4.0,8.0,36,0.00,,,0.00,,2013-04-28 18:42:00,
2013-04-28 14:52:00,67.0,38.0,30.20,East,86,2.0,5.0,35,0.00,,,0.00,,2013-04-28 18:52:00,
2013-04-28 15:02:00,67.0,39.0,30.20,SSE,162,3.0,8.0,36,0.00,,,0.00,,2013-04-28 19:02:00,
2013-04-28 15:11:00,67.0,39.0,30.20,SSE,162,3.0,8.0,36,0.00,,,0.00,,2013-04-28 19:11:00,
2013-04-28 15:22:00,67.0,38.0,30.19,South,182,2.0,9.0,35,0.00,,,0.00,,2013-04-28 19:22:00,
2013-04-28 15:32:00,66.0,38.0,30.19,South,183,3.0,10.0,35,0.00,,,0.00,,2013-04-28 19:32:00,
2013-04-28 15:42:00,66.0,38.0,30.19,South,183,3.0,10.0,35,0.00,,,0.00,,2013-04-28 19:42:00,
2013-04-28 15:52:00,66.0,38.0,30.19,ESE,111,3.0,10.0,35,0.00,,,0.00,,2013-04-28 19:52:00,
2013-04-28 16:02:00,65.0,34.0,30.19,SW,215,7.0,13.0,31,0.00,,,0.00,,2013-04-28 20:02:00,
2013-04-28 16:12:00,65.0,34.0,30.19,SW,215,7.0,13.0,31,0.00,,,0.00,,2013-04-28 20:12:00,
2013-04-28 16:22:00,65.0,31.0,30.19,SW,219,3.0,12.0,28,0.00,,,0.00,,2013-04-28 20:22:00,
2013-04-28 16:32:00,65.0,31.0,30.19,East,84,1.0,7.0,28,0.00,,,0.00,,2013-04-28 20:32:00,
2013-04-28 16:42:00,65.0,31.0,30.19,East,84,1.0,7.0,28,0.00,,,0.00,,2013-04-28 20:42:00,
2013-04-28 16:52:00,65.0,30.0,30.18,SE,127,2.0,8.0,27,0.00,,,0.00,,2013-04-28 20:52:00,
2013-04-28 17:01:00,64.0,28.0,30.18,SSW,211,2.0,6.0,26,0.00,,,0.00,,2013-04-28 21:01:00,
2013-04-28 17:11:00,64.0,28.0,30.18,SSW,211,2.0,6.0,26,0.00,,,0.00,,2013-04-28 21:11:00,
2013-04-28 17:22:00,64.0,30.0,30.18,NE,51,1.0,8.0,28,0.00,,,0.00,,2013-04-28 21:22:00,
2013-04-28 17:33:00,62.0,28.0,30.18,SE,127,1.0,8.0,27,0.00,,,0.00,,2013-04-28 21:33:00,
2013-04-28 17:42:00,62.0,28.0,30.18,SE,127,1.0,8.0,27,0.00,,,0.00,,2013-04-28 21:42:00,
2013-04-28 17:52:00,62.0,29.0,30.18,West,263,3.0,9.0,28,0.00,,,0.00,,2013-04-28 21:52:00,
2013-04-28 18:03:00,61.0,28.0,30.18,East,88,1.0,7.0,28,0.00,,,0.00,,2013-04-28 22:03:00,
2013-04-28 18:13:00,61.0,28.0,30.18,East,88,1.0,7.0,28,0.00,,,0.00,,2013-04-28 22:13:00,
2013-04-28 18:23:00,60.0,27.0,30.17,SW,230,5.0,11.0,28,0.00,,,0.00,,2013-04-28 22:23:00,
2013-04-28 18:33:00,59.0,26.0,30.17,South,177,3.0,10.0,28,0.00,,,0.00,,2013-04-28 22:33:00,
2013-04-28 18:42:00,59.0,26.0,30.17,South,177,3.0,10.0,28,0.00,,,0.00,,2013-04-28 22:42:00,
2013-04-28 18:52:00,59.0,27.0,30.17,WSW,245,2.0,9.0,29,0.00,,,0.00,,2013-04-28 22:52:00,
2013-04-28 19:02:00,58.0,25.0,30.17,SSE,151,1.0,6.0,28,0.00,,,0.00,,2013-04-28 23:02:00,
2013-04-28 19:12:00,58.0,25.0,30.17,SSE,151,1.0,6.0,28,0.00,,,0.00,,2013-04-28 23:12:00,
2013-04-28 19:22:00,58.0,25.0,30.17,SW,220,1.0,7.0,28,0.00,,,0.00,,2013-04-28 23:22:00,
2013-04-28 19:32:00,57.0,24.0,30.17,West,260,1.0,6.0,28,0.00,,,0.00,,2013-04-28 23:32:00,
2013-04-28 19:42:00,57.0,24.0,30.17,West,260,1.0,6.0,28,0.00,,,0.00,,2013-04-28 23:42:00,
2013-04-28 19:52:00,57.0,24.0,30.16,SSW,203,2.0,11.0,28,0.00,,,0.00,,2013-04-28 23:52:00,
2013-04-28 20:01:00,56.0,24.0,30.17,SSW,201,3.0,7.0,29,0.00,,,0.00,,2013-04-29 00:01:00,
2013-04-28 20:11:00,56.0,24.0,30.17,SSW,201,3.0,7.0,29,0.00,,,0.00,,2013-04-29 00:11:00,
2013-04-28 20:22:00,56.0,25.0,30.18,SW,232,1.0,5.0,30,0.00,,,0.00,,2013-04-29 00:22:00,
2013-04-28 20:32:00,56.0,25.0,30.18,East,87,1.0,9.0,30,0.00,,,0.00,,2013-04-29 00:32:00,
2013-04-28 20:42:00,56.0,25.0,30.18,East,87,1.0,9.0,30,0.00,,,0.00,,2013-04-29 00:42:00,
2013-04-28 20:52:00,55.0,25.0,30.18,East,80,0.0,6.0,31,0.00,,,0.00,,2013-04-29 00:52:00,
2013-04-28 21:01:00,55.0,26.0,30.18,SSE,152,0.0,2.0,33,0.00,,,0.00,,2013-04-29 01:01:00,
2013-04-28 21:12:00,55.0,27.0,30.18,SSW,206,1.0,4.0,34,0.00,,,0.00,,2013-04-29 01:12:00,
2013-04-28 21:21:00,55.0,27.0,30.18,SSW,206,1.0,4.0,34,0.00,,,0.00,,2013-04-29 01:21:00,
2013-04-28 21:32:00,54.0,27.0,30.18,East,79,1.0,9.0,35,0.00,,,0.00,,2013-04-29 01:32:00,
2013-04-28 21:42:00,54.0,27.0,30.18,East,79,1.0,9.0,35,0.00,,,0.00,,2013-04-29 01:42:00,
2013-04-28 21:52:00,54.0,28.0,30.18,SSW,201,1.0,5.0,36,0.00,,,0.00,,2013-04-29 01:52:00,
2013-04-28 22:02:00,54.0,28.0,30.19,East,80,0.0,4.0,37,0.00,,,0.00,,2013-04-29 02:02:00,
2013-04-28 22:11:00,54.0,28.0,30.19,East,80,0.0,4.0,37,0.00,,,0.00,,2013-04-29 02:11:00,
2013-04-28 22:22:00,53.0,27.0,30.19,West,275,1.0,4.0,37,0.00,,,0.00,,2013-04-29 02:22:00,
2013-04-28 22:32:00,53.0,28.0,30.20,WSW,258,1.0,5.0,38,0.00,,,0.00,,2013-04-29 02:32:00,
2013-04-28 22:42:00,53.0,28.0,30.20,WSW,258,1.0,5.0,38,0.00,,,0.00,,2013-04-29 02:42:00,
2013-04-28 22:51:00,53.0,28.0,30.20,SSW,210,2.0,4.0,38,0.00,,,0.00,,2013-04-29 02:51:00,
2013-04-28 23:01:00,53.0,29.0,30.20,WNW,294,0.0,5.0,39,0.00,,,0.00,,2013-04-29 03:01:00,
2013-04-28 23:12:00,53.0,29.0,30.20,WNW,294,0.0,5.0,39,0.00,,,0.00,,2013-04-29 03:12:00,
2013-04-28 23:21:00,53.0,30.0,30.20,SW,232,0.0,5.0,41,0.00,,,0.00,,2013-04-29 03:21:00,
2013-04-28 23:33:00,53.0,33.0,30.20,SSW,210,0.0,5.0,46,0.00,,,0.00,,2013-04-29 03:33:00,
2013-04-28 23:42:00,53.0,33.0,30.20,SSW,210,0.0,5.0,46,0.00,,,0.00,,2013-04-29 03:42:00,
2013-04-28 23:52:00,53.0,34.0,30.20,SW,218,0.0,4.0,48,0.00,,,0.00,,2013-04-29 03:52:00,